[[{"header":{"parameterUnit":"m.s-1","parameterCategory":1,"la1":30.2991,"la2":30.254,"lo1":-89.0895,"lo2":-89.0444,"dy":0.0017,"dx":0.0017,"nx":28,"ny":28,"refTime":"2024-11-25T09:00:00:Z","depth":0,"parameterNumber":2,"parameterNumberName":"U-component_of_WINDS"},"data":[0,0,0,0,0,0,0,0,0,0,0,0,0,0,0,0,0,0,0,0,0,0,0,0,0,0,0,0,0,0,0,0,0,0,0,0,0,0,0,0,0,0,0,0,0,0,0,0,0,0,0,0,0,0,0,0,0,0,-0.7336,-0.7336,0,-0.7375,-0.7375,-0.7376,-0.7419,-0.742,-0.7421,-0.7421,-0.746,-0.7461,-0.7461,0,0,0,0,0,0,0,0,0,0,0,0,0,-0.7298,-0.7298,-0.7335,-0.7336,-0.7336,-0.7375,-0.7375,-0.7376,-0.7419,-0.742,-0.7421,-0.7422,-0.746,-0.746,-0.7461,0,0,0,0,0,0,0,0,0,0,0,0,0,-0.7323,-0.7298,-0.7335,-0.7363,-0.7366,-0.7375,-0.7375,-0.7376,-0.7419,-0.742,-0.7421,-0.7422,-0.746,-0.746,-0.7461,-0.7446,0,0,-0.7463,-0.7463,0,0,0,0,0,0,0,0,-0.7322,-0.7325,-0.7358,-0.7361,-0.7364,-0.7393,-0.7376,-0.7399,-0.7419,-0.7399,-0.7421,-0.7423,-0.7437,-0.744,-0.7445,-0.7447,-0.7449,-0.7463,-0.7463,-0.7464,-0.7464,0,0,0,0,0,0,0,-0.732,-0.7323,-0.7351,-0.7359,-0.7362,-0.7373,-0.7378,-0.7381,-0.7412,-0.7401,-0.7404,-0.7408,-0.7439,-0.7444,-0.7446,-0.745,-0.7463,-0.7464,-0.7464,-0.7464,-0.7441,-0.744,0,0,0,0,0,0,-0.7314,-0.7321,-0.735,-0.7352,-0.7345,-0.7373,-0.7378,-0.7383,-0.7412,-0.7417,-0.7407,-0.741,-0.7442,-0.7445,-0.7447,-0.7431,-0.7464,-0.7464,-0.7465,-0.7442,-0.7441,-0.744,0,0,0,0,0,0,-0.7313,-0.7316,-0.7348,-0.7338,-0.7343,-0.7373,-0.7378,-0.7383,-0.7388,-0.7417,-0.7423,-0.7407,-0.7443,-0.7447,-0.7446,-0.7433,-0.7465,-0.7465,-0.7443,-0.7442,-0.744,-0.7397,0,0,0,0,0,0,-0.7312,-0.7316,-0.731,-0.7337,-0.7343,-0.7346,-0.7377,-0.7383,-0.739,-0.7394,-0.7418,-0.7423,-0.7444,-0.7445,-0.7446,-0.7434,-0.7466,-0.7445,-0.7443,-0.7441,-0.74,-0.7394,-0.739,0,0,0,0,0,-0.731,-0.7296,-0.731,-0.7313,-0.7337,-0.7345,-0.7348,-0.7373,-0.7388,-0.7383,-0.7401,-0.7422,-0.7434,-0.7444,-0.7447,-0.7434,-0.7446,-0.7443,-0.7441,-0.7402,-0.7395,-0.739,0,0,0,0,0,0,-0.7266,-0.73,-0.7315,-0.731,-0.7324,-0.7352,-0.7346,-0.7365,-0.7376,-0.7379,-0.7409,-0.7414,-0.741,-0.7422,-0.7433,-0.7421,-0.7443,-0.7441,-0.7412,-0.7406,-0.7401,-0.7398,-0.7466,0,0,0,0,0,-0.7256,-0.726,-0.7289,-0.7281,-0.7288,-0.7316,-0.732,-0.7338,-0.7355,-0.7361,-0.7379,-0.7393,-0.7401,-0.7404,-0.7413,-0.7403,-0.7408,-0.7395,-0.739,-0.7386,-0.7383,-0.7379,-0.7373,-0.7433,-0.7433,-0.7433,0,0,-0.7234,-0.7253,-0.7254,-0.7273,-0.7286,-0.7289,-0.7321,-0.7323,-0.7325,-0.7361,-0.7361,-0.7375,-0.7393,-0.7388,-0.7386,-0.7398,-0.7369,-0.7383,-0.7379,-0.7379,-0.7376,-0.737,-0.7365,-0.7431,-0.7431,-0.7432,0,0,-0.7196,-0.7211,-0.7206,-0.7219,-0.7239,-0.7258,-0.7257,-0.7282,-0.7293,-0.7294,-0.7321,-0.7324,-0.7336,-0.7348,-0.7355,-0.7322,-0.7342,-0.7324,-0.7297,-0.7292,-0.7287,-0.7283,-0.7271,-0.7266,-0.7322,-0.7322,-0.7322,0,-0.7166,-0.7173,-0.7201,-0.7201,-0.7209,-0.7242,-0.7237,-0.7248,-0.727,-0.7274,-0.7287,-0.7302,-0.7317,-0.7314,-0.7306,-0.7312,-0.7311,-0.7321,-0.7286,-0.7282,-0.7279,-0.7267,-0.7262,-0.732,-0.732,-0.732,-0.732,0,-0.7135,-0.7139,-0.7132,-0.7152,-0.7159,-0.7157,-0.7185,-0.7188,-0.7206,-0.7223,-0.7224,-0.7243,-0.7255,-0.7256,-0.7273,-0.7256,-0.7262,-0.728,-0.7303,-0.727,-0.726,-0.7255,-0.7316,-0.7317,-0.7318,-0.7318,0,0,-0.7069,-0.7105,-0.7102,-0.7112,-0.7137,-0.714,-0.714,-0.7152,-0.7154,-0.7168,-0.7168,-0.7177,-0.7194,-0.7203,-0.7222,-0.7217,-0.7189,-0.7236,-0.7237,-0.7226,-0.717,-0.7155,-0.715,-0.7203,-0.7202,-0.7202,-0.7168,0,-0.7034,-0.7035,-0.7061,-0.7054,-0.7058,-0.709,-0.7089,-0.7104,-0.7121,-0.7126,-0.7144,-0.715,-0.7172,-0.7177,-0.7175,-0.7193,-0.7178,-0.7196,-0.7202,-0.7202,-0.7195,-0.7144,-0.7129,-0.7096,-0.7164,-0.7164,-0.7163,0,-0.6994,-0.7006,-0.7,-0.7025,-0.7028,-0.7026,-0.704,-0.7045,-0.7063,-0.7075,-0.7085,-0.7107,-0.7107,-0.713,-0.713,-0.7142,-0.7146,-0.7156,-0.7155,-0.7155,-0.7179,-0.7142,-0.7087,-0.7081,-0.7157,-0.7158,-0.7158,0,-0.6945,-0.696,-0.6958,-0.6965,-0.6995,-0.6993,-0.7006,-0.7025,-0.703,-0.7042,-0.7046,-0.7058,-0.7064,-0.7073,-0.7097,-0.7111,-0.7095,-0.7119,-0.7104,-0.7103,-0.7098,-0.7097,-0.7041,-0.7102,-0.7103,-0.7103,-0.7103,0,-0.6903,-0.6898,-0.6936,-0.6935,-0.693,-0.696,-0.6954,-0.6969,-0.6986,-0.6987,-0.7017,-0.7017,-0.705,-0.7055,-0.7074,-0.7071,-0.7074,-0.7084,-0.7088,-0.708,-0.7079,-0.7082,-0.7084,-0.7101,-0.7102,-0.7102,-0.7102,0,-0.6847,-0.6873,-0.6873,-0.6901,-0.6908,-0.6903,-0.6927,-0.6927,-0.6946,-0.6948,-0.695,-0.6979,-0.6986,-0.7011,-0.7024,-0.7037,-0.7028,-0.7038,-0.7022,-0.7025,-0.7008,-0.7008,-0.695,-0.6943,-0.701,-0.701,-0.7009,0,-0.6818,-0.6815,-0.6843,-0.6847,-0.6858,-0.6863,-0.687,-0.6899,-0.6904,-0.6925,-0.6921,-0.6931,-0.694,-0.695,-0.6971,-0.6982,-0.6992,-0.6971,-0.6993,-0.6985,-0.699,-0.6989,-0.6989,-0.6965,-0.6964,-0.6963,-0.6963,0,-0.6764,-0.6777,-0.6785,-0.6797,-0.6804,-0.6816,-0.6828,-0.683,-0.6863,-0.6867,-0.6875,-0.6882,-0.6895,-0.6904,-0.6918,-0.693,-0.6951,-0.6956,-0.6953,-0.6943,-0.6933,-0.6937,-0.7007,-0.6957,-0.6957,-0.6958,-0.6958,-0.6958,-0.672,-0.6718,-0.6738,-0.6746,-0.6759,-0.677,-0.6771,-0.679,-0.6797,-0.6811,-0.6828,-0.6833,-0.6851,-0.6872,-0.6883,-0.6887,-0.6899,-0.6895,-0.6893,-0.6891,-0.6887,-0.6934,-0.689,-0.689,-0.689,-0.6891,-0.6891,0,-0.6666,-0.668,-0.6687,-0.6705,-0.6711,-0.6732,-0.6747,-0.6751,-0.6755,-0.677,-0.6779,-0.6787,-0.6796,-0.6819,-0.683,-0.6829,-0.6839,-0.683,-0.683,-0.6832,-0.6876,-0.6877,-0.6822,-0.6822,-0.6822,-0.6822,-0.6822,-0.6822,-0.6638,-0.6636,-0.6652,-0.6656,-0.6671,-0.6677,-0.6684,-0.6694,-0.6706,-0.6715,-0.6722,-0.6737,-0.6755,-0.6768,-0.6777,-0.6783,-0.6785,-0.6773,-0.6783,-0.6823,-0.6829,-0.6835,-0.6837,-0.6774,-0.6774,-0.6738,-0.6738,-0.6738]},{"header":{"parameterUnit":"m.s-1","parameterCategory":1,"la1":30.2991,"la2":30.254,"lo1":-89.0895,"lo2":-89.0444,"dy":0.0017,"dx":0.0017,"nx":28,"ny":28,"refTime":"2024-11-25T09:00:00:Z","depth":0,"parameterNumber":3,"parameterNumberName":"V-component_of_WINDS"},"data":[0,0,0,0,0,0,0,0,0,0,0,0,0,0,0,0,0,0,0,0,0,0,0,0,0,0,0,0,0,0,0,0,0,0,0,0,0,0,0,0,0,0,0,0,0,0,0,0,0,0,0,0,0,0,0,0,0,0,1.0227,1.0225,0,1.0106,1.0105,1.0103,1.0006,1.0005,1.0004,1.0003,0.9878,0.9876,0.9873,0,0,0,0,0,0,0,0,0,0,0,0,0,1.0371,1.0369,1.0227,1.0225,1.0224,1.0106,1.0105,1.0103,1.0006,1.0005,1.0003,1.0002,0.9879,0.9876,0.9873,0,0,0,0,0,0,0,0,0,0,0,0,0,1.0285,1.0368,1.0227,1.0161,1.0154,1.0107,1.0105,1.0102,1.0006,1.0004,1.0003,1.0002,0.988,0.9876,0.9873,0.988,0,0,0.9862,0.986,0,0,0,0,0,0,0,0,1.029,1.028,1.0172,1.0166,1.0157,1.0069,1.0109,1.0028,1.0006,1.0062,1.0003,1.0001,0.9943,0.9934,0.9914,0.9875,0.9869,0.9861,0.9859,0.9858,0.9857,0,0,0,0,0,0,0,1.0296,1.0284,1.0179,1.0171,1.0162,1.0137,1.0123,1.0094,1.0012,1.0057,1.005,1.0037,0.9938,0.9918,0.9911,0.9867,0.9861,0.9858,0.9856,0.9855,0.9826,0.9828,0,0,0,0,0,0,1.0312,1.029,1.0183,1.0175,1.0221,1.0135,1.012,1.0099,1.0012,0.9998,1.0038,1.0033,0.9925,0.9915,0.9906,0.9908,0.9858,0.9854,0.9852,0.9825,0.9827,0.9828,0,0,0,0,0,0,1.0316,1.0304,1.0188,1.0231,1.0214,1.0135,1.0112,1.0098,1.0077,0.9998,0.9983,1.0033,0.9923,0.9911,0.9887,0.9902,0.9853,0.9849,0.9823,0.9826,0.9828,0.9914,0,0,0,0,0,0,1.032,1.0306,1.0308,1.0231,1.0212,1.0172,1.0113,1.0096,1.0071,1.0063,0.9989,0.9975,0.9921,0.9893,0.9884,0.9897,0.9847,0.9822,0.9824,0.9827,0.9909,0.9918,0.9927,0,0,0,0,0,1.0326,1.0337,1.0309,1.0297,1.0214,1.0173,1.0161,1.01,1.0073,1.0074,1.0024,0.9977,0.9903,0.9892,0.988,0.9892,0.982,0.9824,0.9827,0.9905,0.9917,0.9926,0,0,0,0,0,0,1.0417,1.0326,1.0293,1.0281,1.0235,1.0156,1.0156,1.0114,1.0075,1.0069,0.9993,0.9977,0.9962,0.9924,0.9914,0.9895,0.9855,0.9857,0.9919,0.9929,0.9938,0.9946,0.9844,0,0,0,0,0,1.0436,1.0411,1.0332,1.0329,1.0308,1.0236,1.0216,1.0172,1.0122,1.0102,1.005,1.0002,0.9968,0.9947,0.9911,0.9904,0.9885,0.9907,0.9915,0.9923,0.9924,0.9916,0.9924,0.9839,0.9839,0.9839,0,0,1.0475,1.0422,1.041,1.0346,1.0305,1.028,1.0221,1.0197,1.0177,1.0098,1.0072,1.0033,0.9974,0.9959,0.9949,0.9928,0.9944,0.9927,0.9934,0.993,0.992,0.9929,0.9936,0.9841,0.984,0.984,0,0,1.0531,1.0489,1.0481,1.0442,1.0382,1.0334,1.0332,1.026,1.023,1.0203,1.0143,1.0119,1.0061,1.0022,0.9995,1.0037,0.9992,1.0027,1.0072,1.0066,1.0072,1.0078,1.0092,1.0098,1.0029,1.003,1.003,0,1.0586,1.0546,1.0482,1.0461,1.0434,1.0362,1.0352,1.0317,1.0249,1.0231,1.0208,1.0134,1.0091,1.0064,1.0074,1.0055,1.005,1.0035,1.0077,1.0082,1.0086,1.0098,1.0104,1.0034,1.0033,1.0033,1.0033,0,1.0616,1.0589,1.059,1.0525,1.0498,1.0483,1.0416,1.0396,1.0355,1.031,1.0283,1.0228,1.0179,1.017,1.013,1.0137,1.0126,1.0091,1.005,1.01,1.011,1.0114,1.0041,1.0039,1.0038,1.0036,0,0,1.0726,1.0626,1.0627,1.0596,1.0525,1.0503,1.0484,1.0437,1.0421,1.0376,1.0358,1.0312,1.0279,1.0248,1.0203,1.0197,1.0232,1.0163,1.016,1.0176,1.0236,1.0262,1.0268,1.0203,1.0204,1.0204,1.0241,0,1.0769,1.0732,1.0674,1.0656,1.0629,1.0561,1.0545,1.0499,1.0457,1.0428,1.0381,1.0348,1.0308,1.0289,1.0281,1.023,1.0243,1.0227,1.0184,1.0184,1.02,1.0274,1.03,1.0337,1.0244,1.0245,1.0245,0,1.0815,1.0774,1.0754,1.0684,1.0671,1.0657,1.0609,1.0582,1.0529,1.0498,1.0464,1.0415,1.0391,1.0355,1.0321,1.0311,1.0291,1.0263,1.0263,1.0255,1.0217,1.0267,1.0348,1.0353,1.0251,1.0251,1.025,0,1.0895,1.0835,1.0815,1.0791,1.071,1.0701,1.0667,1.0612,1.0587,1.0545,1.0527,1.0483,1.0459,1.0425,1.0365,1.0345,1.0337,1.0297,1.031,1.0312,1.031,1.0311,1.0388,1.03,1.03,1.03,1.03,0,1.0949,1.0939,1.085,1.0837,1.0823,1.0756,1.0744,1.0703,1.0655,1.0633,1.0572,1.0552,1.0475,1.0446,1.0399,1.0377,1.0367,1.0341,1.0328,1.0345,1.0348,1.0329,1.0325,1.0301,1.0301,1.0301,1.0301,0,1.1036,1.0976,1.0949,1.0874,1.0855,1.0848,1.0783,1.0768,1.0722,1.0695,1.0684,1.0612,1.0575,1.0513,1.0457,1.0426,1.0412,1.0392,1.043,1.0422,1.0439,1.0438,1.0505,1.051,1.0422,1.0423,1.0423,0,1.1073,1.1064,1.0988,1.0969,1.0936,1.0906,1.0881,1.0814,1.079,1.0728,1.072,1.0679,1.0641,1.0585,1.0528,1.0485,1.0462,1.0489,1.0455,1.0473,1.0461,1.0461,1.046,1.0496,1.0497,1.0498,1.0499,0,1.1146,1.1116,1.1082,1.1037,1.1008,1.097,1.0928,1.0916,1.084,1.0816,1.0777,1.0749,1.0692,1.0651,1.06,1.0564,1.0519,1.0511,1.0511,1.0528,1.055,1.0537,1.045,1.0509,1.0508,1.0507,1.0507,1.0506,1.1207,1.1195,1.114,1.1103,1.1065,1.1028,1.1009,1.0962,1.0928,1.0877,1.084,1.0804,1.075,1.0678,1.0644,1.0614,1.0594,1.0595,1.0595,1.0596,1.0602,1.0556,1.0605,1.0605,1.0604,1.0604,1.0604,0,1.1275,1.1236,1.1203,1.1147,1.1118,1.1079,1.1031,1.1009,1.0978,1.0932,1.0897,1.0853,1.0813,1.0753,1.0708,1.0696,1.0674,1.0686,1.0685,1.0678,1.0624,1.0627,1.0704,1.0704,1.0704,1.0704,1.0704,1.0704,1.1307,1.1284,1.1248,1.1206,1.1167,1.1131,1.1107,1.1072,1.1034,1.0988,1.0954,1.0915,1.0863,1.0814,1.0776,1.0759,1.0745,1.0763,1.074,1.0691,1.0681,1.0673,1.0675,1.0761,1.0761,1.0796,1.0796,1.0797]}]]